Temperature
5 6 6 6 6 6 6 5 5 6 7 9 9 9 9 8 7 6 6 6 6 7 7 7 7 8 8 9 9 9 9 9 9 9 9 9 8 7 6 5 4 4 3 3
5 6 6 5 6 6 6 7 7 7 8 9 9 9 8 6 5 5 5 5 5 6 6 6 6 6 7 7 7 7 7 7 8 7 7 6 6 5 4 3 3 2 2 2
6 6 6 6 7 7 7 7 8 8 8 9 9 8 6 4 3 3 3 3 4 5 5 5 5 5 5 5 5 5 5 5 5 4 4 4 3 3 2 2 1 1 1 1
6 6 6 8 9 8 8 8 8 8 9 9 8 7 4 3 2 2 2 2 3 3 4 4 4 4 4 4 3 3 3 2 2 2 2 2 2 1 1 1 0 1 1 1
6 6 6 8 9 9 8 8 8 8 8 8 8 6 4 3 2 1 1 1 2 2 2 2 2 2 2 2 2 2 1 1 1 1 1 1 1 1 0 0 0 0 -0 -0
6 7 7 9 10 9 8 8 9 8 8 7 7 6 5 2 1 1 0 1 1 1 1 1 1 1 1 1 1 0 0 0 0 1 1 1 1 0 0 0 -0 -0 -1 -1
6 7 7 8 9 8 8 9 10 9 8 7 6 5 4 2 2 1 0 0 0 0 1 0 -0 0 1 0 0 -0 -0 0 0 1 1 1 0 0 -0 -1 -1 -1 -1 -2
6 7 7 9 8 8 9 10 9 8 8 7 6 4 4 3 2 1 1 0 0 0 0 0 -0 0 0 0 0 0 1 1 1 1 0 0 -0 -1 -1 -1 -1 -1 -2 -2
6 8 9 10 10 11 10 9 8 7 7 7 5 4 4 3 2 2 1 1 1 1 1 1 1 1 1 1 1 1 1 1 0 -0 -0 -1 -1 -1 -1 -2 -2 -2 -2 -2
7 7 8 10 10 10 10 9 8 7 6 6 6 5 4 3 3 2 2 2 2 2 2 2 2 2 2 1 1 1 1 0 -0 -0 -1 -1 -1 -2 -2 -2 -2 -2 -3 -3
7 7 9 10 10 10 10 9 8 7 6 6 5 4 4 3 3 3 2 2 2 3 2 2 2 2 2 1 1 1 0 -0 -1 -1 -1 -1 -2 -2 -2 -2 -2 -3 -3 -4
7 8 8 10 11 10 10 9 7 6 6 5 5 4 3 3 3 3 2 2 2 3 2 2 2 1 1 1 1 1 0 -0 -1 -1 -1 -1 -2 -2 -2 -3 -3 -4 -5 -5
9 9 9 10 10 10 9 8 7 6 6 5 4 4 3 3 2 2 2 2 3 2 2 2 1 1 1 -0 -0 -0 -0 -1 -1 -1 -2 -2 -2 -3 -3 -4 -5 -6 -6 -7
8 8 9 9 9 9 9 8 7 6 5 4 4 3 3 2 2 2 2 2 2 2 2 1 1 0 -0 -1 -1 -1 -1 -1 -2 -2 -2 -3 -3 -4 -4 -5 -5 -6 -7 -7
8 7 8 8 8 8 8 7 6 5 4 3 3 3 2 2 2 2 2 2 2 1 1 1 0 -0 -1 -1 -1 -1 -2 -2 -2 -3 -3 -3 -4 -4 -5 -6 -6 -7 -7 -8
5 6 7 7 7 7 6 6 5 5 4 4 3 2 2 2 2 2 2 2 2 1 1 0 -0 -1 -1 -2 -2 -2 -2 -2 -3 -3 -4 -4 -4 -5 -6 -6 -7 -8 -8 -8
3 4 5 5 6 6 6 6 5 5 4 3 3 3 2 2 2 2 2 1 1 1 0 -0 -0 -1 -2 -2 -2 -2 -2 -3 -3 -4 -4 -4 -5 -6 -6 -7 -8 -8 -9 -9
1 2 3 3 4 5 5 5 5 4 4 4 3 3 3 3 3 2 2 1 0 -0 -1 -1 -1 -1 -2 -2 -2 -2 -3 -3 -3 -4 -4 -5 -6 -7 -7 -8 -8 -9 -9 -10
1 2 3 4 4 5 5 5 4 4 3 3 3 3 3 3 3 2 2 1 0 -0 -1 -1 -2 -2 -2 -2 -2 -3 -3 -3 -4 -4 -5 -6 -7 -7 -8 -9 -9 -9 -10 -10
1 2 2 3 4 4 5 4 4 3 3 3 3 3 3 3 2 2 1 1 0 0 -0 -1 -2 -2 -2 -2 -3 -3 -3 -4 -4 -5 -6 -7 -7 -8 -9 -9 -9 -10 -10 -10
1 2 2 3 4 4 4 4 3 3 3 3 3 3 3 3 2 1 1 0 -0 -1 -1 -1 -2 -2 -3 -3 -3 -3 -4 -4 -5 -6 -7 -7 -8 -9 -9 -9 -10 -10 -10 -10
1 1 2 2 3 3 3 2 2 2 2 2 2 2 2 2 2 1 1 1 -0 -1 -1 -2 -2 -2 -3 -3 -3 -4 -4 -5 -6 -6 -7 -8 -8 -9 -9 -10 -10 -10 -10 -10
1 1 1 2 2 2 2 1 1 1 2 2 3 3 3 3 2 2 1 -0 -1 -1 -1 -2 -2 -3 -3 -3 -4 -4 -5 -6 -6 -7 -8 -8 -9 -9 -10 -10 -10 -10 -10 -10
1 1 1 1 1 1 1 1 0 1 1 1 2 2 2 2 1 1 1 -0 -1 -1 -2 -2 -3 -3 -3 -4 -4 -5 -5 -6 -7 -7 -8 -9 -9 -9 -10 -10 -10 -10 -10 -10
0 0 0 0 -0 -0 -0 -0 -1 -1 -0 -0 0 1 1 1 1 1 0 -0 -1 -2 -2 -3 -3 -3 -4 -4 -5 -5 -6 -6 -7 -8 -8 -9 -9 -9 -10 -10 -10 -10 -10 -9
-0 -0 -1 -1 -1 -1 -2 -2 -1 -1 -1 -1 -1 -0 -0 0 -0 -0 -1 -1 -1 -2 -2 -3 -3 -4 -4 -5 -5 -6 -6 -7 -7 -8 -8 -9 -9 -9 -9 -9 -9 -9 -9 -9
-1 -1 -1 -1 -2 -2 -2 -3 -2 -2 -2 -2 -1 -1 -1 -1 -1 -1 -1 -1 -2 -2 -3 -3 -4 -4 -4 -5 -5 -6 -6 -7 -8 -8 -8 -9 -9 -9 -9 -9 -9 -9 -9 -8
Wind_Speed
5 5 4 7 9 11 14 13 11 12 17 25 23 21 16 13 13 13 13 12 10 8 7 5 4 3 3 3 3 6 8 10 10 12 13 15 15 15 15 15 15 14 14 12
4 5 7 8 12 13 15 16 19 23 25 22 16 11 11 10 12 14 14 13 10 7 4 2 2 4 6 7 8 10 11 12 13 15 16 17 16 16 16 16 15 15 13 12
4 5 4 8 11 12 8 9 11 15 13 11 14 14 8 8 11 12 13 13 10 6 4 5 6 8 9 10 12 14 14 14 15 17 18 17 18 18 17 15 14 13 11 10
3 4 5 6 3 7 8 10 11 12 13 13 13 8 2 5 8 10 11 10 9 8 9 9 10 11 12 13 15 15 15 15 15 17 18 18 17 16 14 12 11 10 9 8
2 4 7 8 4 5 6 8 8 10 12 10 8 3 0 5 7 7 8 8 8 8 9 10 11 12 14 15 15 15 15 15 15 16 17 16 16 14 11 10 9 8 6 7
3 4 5 5 2 3 3 6 6 7 9 8 5 4 3 5 6 7 8 7 8 9 10 11 11 12 15 14 14 14 14 13 13 14 15 14 13 12 9 8 8 7 6 5
6 5 7 7 3 5 2 6 4 5 7 5 3 2 1 3 4 5 6 7 8 9 9 9 9 11 13 12 12 11 12 12 12 12 13 12 11 9 8 7 7 6 5 3
6 6 8 5 5 4 7 6 5 5 4 3 4 4 4 3 4 5 5 6 7 8 8 7 8 10 12 11 9 10 11 12 12 11 10 9 9 8 7 7 6 5 4 3
8 9 6 3 6 5 3 5 5 4 3 5 6 5 5 4 4 5 5 6 6 8 8 8 8 9 11 9 10 11 12 12 11 10 8 8 8 8 6 6 5 4 3 3
5 8 8 8 6 4 3 4 5 4 4 7 6 7 7 6 6 6 6 6 7 8 9 9 9 10 10 9 9 11 11 10 9 9 8 7 6 6 5 5 4 4 3 2
6 8 8 5 5 5 3 3 2 1 3 6 9 8 7 7 7 7 7 7 7 8 9 9 9 9 8 8 10 11 10 9 8 7 7 7 5 4 4 3 4 3 2 1
7 7 6 7 5 4 5 4 4 3 3 5 8 9 8 7 7 8 8 8 9 9 9 9 9 9 7 7 8 10 9 7 6 6 5 5 5 4 5 4 4 4 3 3
7 7 6 6 4 4 4 4 4 5 6 6 7 8 8 8 7 9 9 10 10 9 9 9 9 8 7 7 7 8 9 7 5 5 5 4 4 4 3 4 5 5 4 5
7 5 5 5 5 5 5 5 5 5 5 7 7 8 9 8 9 10 10 9 10 10 9 9 9 7 6 7 8 8 8 7 6 4 4 4 3 3 2 2 1 2 4 7
9 7 5 2 3 5 5 6 6 6 6 6 7 9 9 10 10 9 9 10 10 10 9 8 9 7 6 8 8 8 7 5 5 4 4 3 3 3 2 2 1 1 2 4
12 8 2 2 5 6 6 7 7 7 7 7 8 9 9 9 10 10 9 10 11 10 9 8 8 6 7 8 8 6 5 8 6 4 4 3 3 3 2 1 1 2 3 4
8 7 4 4 5 7 8 8 8 8 9 9 10 10 11 12 11 10 8 7 8 8 7 8 8 7 7 7 7 5 5 6 7 5 3 3 2 1 1 1 1 2 3 5
9 10 10 9 8 8 9 9 9 10 10 9 11 12 13 14 13 12 10 10 9 8 6 7 7 8 7 7 6 5 5 4 4 3 2 2 2 1 1 1 2 3 3 5
10 10 9 9 8 8 8 9 10 10 11 12 13 12 11 10 11 12 12 12 12 10 7 7 12 9 7 7 7 5 5 5 4 3 2 2 2 1 2 2 3 4 4 4
10 10 9 7 4 4 6 8 10 11 12 13 13 12 11 10 11 12 11 9 7 6 8 9 9 7 6 7 8 5 5 5 4 2 1 1 1 2 2 3 3 4 4 4
12 11 9 7 3 0 4 8 11 12 12 13 13 13 12 11 11 11 10 7 5 8 10 12 7 6 6 6 7 5 4 4 3 2 0 1 2 2 3 3 4 4 5 5
10 9 9 6 3 2 3 5 8 11 12 11 10 11 12 12 11 8 6 6 9 14 9 6 6 8 9 8 5 4 4 3 2 1 1 1 2 3 3 4 4 5 5 6
9 8 8 6 3 1 2 4 6 9 10 11 12 13 13 11 10 10 8 6 8 14 9 6 9 12 11 6 4 4 3 2 2 1 2 2 3 3 4 5 5 5 6 6
9 8 7 5 3 1 1 2 3 5 7 8 9 10 10 10 7 4 5 14 16 14 8 11 14 13 10 5 4 4 3 2 2 2 2 3 3 4 4 5 5 6 6 7
8 7 6 5 3 1 1 2 4 5 7 6 8 8 7 6 6 7 9 11 16 14 8 11 14 12 7 4 4 3 3 3 3 3 3 3 4 5 5 5 6 6 6 7
6 6 6 5 4 2 2 3 4 5 6 7 6 6 6 6 8 9 9 10 12 13 8 6 7 7 5 4 4 3 3 2 2 2 3 4 5 5 6 6 8 7 7 7
7 5 4 4 3 2 3 4 5 6 7 8 8 7 8 8 9 10 10 9 9 8 7 6 5 5 4 4 3 3 3 3 3 4 4 5 5 5 6 7 7 7 7 7
Wind_Direction
248 244 213 216 217 206 211 220 240 260 272 284 294 300 304 310 316 315 317 317 310 294 283 286 297 318 0 22 59 103 116 119 120 119 119 120 121 121 120 120 119 115 112 108
294 268 235 242 237 228 231 237 246 263 276 279 284 297 308 323 329 328 329 325 320 315 309 316 21 52 57 57 63 82 94 100 104 108 109 108 108 108 106 105 106 107 108 107
277 300 317 265 232 209 209 217 226 251 261 285 304 315 325 336 336 332 332 335 341 349 15 48 63 74 73 72 76 81 87 93 99 103 103 103 104 102 101 101 102 103 105 105
282 320 256 247 237 187 213 242 234 247 267 285 297 307 33 4 339 339 348 360 13 34 52 60 70 78 82 83 85 88 91 93 97 100 101 101 100 100 101 102 103 104 106 112
252 277 278 284 238 194 218 273 243 245 268 286 307 297 137 23 6 0 6 22 35 49 63 69 75 84 87 87 90 92 94 96 99 104 105 105 105 105 106 108 107 110 121 134
225 264 261 261 255 150 137 279 253 241 269 289 323 327 325 23 21 21 26 38 51 60 69 74 79 89 91 92 94 96 99 100 101 105 108 109 110 109 109 113 118 124 129 145
226 247 269 259 220 126 227 267 278 249 261 264 231 215 84 60 48 44 43 51 61 68 73 78 86 93 96 96 98 102 102 99 98 100 104 107 106 110 118 120 120 117 114 109
196 218 255 250 150 196 237 274 286 271 249 202 160 133 118 97 79 72 64 64 72 77 75 73 83 94 95 93 97 100 99 98 98 100 104 110 111 112 112 114 110 106 105 90
200 220 242 240 230 254 262 276 280 270 231 163 154 158 143 123 105 96 90 83 81 86 82 74 79 95 100 100 104 104 101 102 101 97 96 103 109 108 99 98 106 109 115 111
249 262 263 265 251 245 241 255 275 267 205 170 164 156 149 136 124 114 106 101 100 98 93 88 89 95 103 109 108 106 104 100 99 98 92 83 85 95 105 112 116 119 118 106
255 277 294 280 238 236 239 242 265 268 175 170 155 154 153 143 134 127 119 112 107 106 104 102 101 101 102 105 108 105 100 97 92 90 93 88 83 93 111 124 142 137 145 159
238 241 239 260 245 216 221 225 207 170 139 147 154 151 144 139 133 128 124 119 116 113 113 110 107 101 95 100 113 115 108 98 95 95 92 91 90 71 71 86 89 108 165 203
254 267 245 256 241 206 205 199 180 170 161 149 144 143 139 136 134 130 129 131 130 126 121 117 112 105 100 101 103 107 112 109 101 99 98 95 94 96 75 41 49 43 22 351
280 276 258 238 227 197 169 144 131 123 130 136 136 135 134 132 135 136 136 134 130 125 122 119 112 105 103 103 103 102 104 113 112 107 106 106 107 110 112 100 33 350 355 354
330 304 262 230 149 144 140 136 137 140 137 132 136 141 143 142 142 138 134 132 127 123 121 119 115 111 108 109 110 111 111 110 108 107 105 104 103 101 95 88 67 332 321 333
318 314 279 197 187 178 169 170 171 171 160 151 148 146 141 136 132 131 134 139 140 140 136 129 125 125 119 116 114 111 116 126 121 114 106 99 94 93 88 68 11 333 320 312
311 302 288 265 232 215 204 196 186 177 167 160 154 143 138 136 134 135 132 126 126 128 131 132 131 128 124 123 121 119 113 120 119 109 104 104 99 89 66 353 325 314 304 312
283 277 273 266 254 232 215 197 182 175 169 159 149 150 154 156 156 150 141 130 121 112 117 127 131 128 127 127 125 125 122 119 119 116 111 109 105 71 17 336 321 315 306 313
314 302 289 272 250 225 207 192 181 170 159 155 160 164 163 157 152 149 146 145 147 148 155 152 143 133 131 138 132 122 123 119 112 104 87 66 67 20 344 321 310 306 307 311
331 328 323 312 283 216 193 175 164 159 159 160 160 159 159 156 154 154 154 157 164 157 152 148 137 132 132 138 131 121 123 122 121 117 100 56 359 328 320 314 311 306 307 308
337 337 339 336 334 42 155 155 157 161 163 165 169 170 165 159 158 158 158 159 160 147 151 151 144 140 138 139 130 123 123 124 126 129 126 315 311 307 306 305 308 311 310 307
337 340 344 351 13 51 111 143 156 160 162 165 162 157 157 160 162 162 161 160 159 160 152 147 147 154 152 139 125 128 129 134 142 161 235 283 291 296 297 301 301 300 296 294
338 339 343 349 360 41 107 144 160 166 168 169 169 170 172 170 170 168 168 159 157 162 154 157 164 159 149 135 134 136 142 154 176 215 257 277 284 290 293 294 290 289 290 290
338 339 337 339 354 66 146 155 155 157 158 160 166 168 165 160 160 154 142 161 166 159 157 166 163 158 149 139 140 147 163 186 218 248 268 280 286 288 284 284 285 285 284 285
327 325 328 333 329 296 212 143 131 138 144 151 156 158 159 157 157 156 152 159 163 156 156 166 162 156 148 145 155 167 189 221 235 243 253 271 277 278 278 277 277 281 283 282
320 318 313 302 285 254 204 175 170 166 159 158 159 156 146 137 140 148 151 152 155 156 151 140 144 150 149 156 167 186 210 248 291 291 271 274 275 276 277 279 280 279 279 279
312 310 307 308 297 251 215 197 187 183 178 173 166 164 157 152 152 153 150 149 149 149 145 141 142 148 155 165 183 206 227 244 260 269 272 270 270 271 274 277 277 278 279 279
Height
1479 1476 1477 1478 1478 1479 1481 1480 1480 1467 1458 1445 1439 1436 1432 1427 1423 1418 1413 1408 1403 1400 1398 1396 1396 1395 1395 1395 1394 1395 1396 1398 1401 1405 1409 1413 1418 1423 1428 1433 1439 1445 1451 1457
1477 1474 1475 1475 1471 1472 1472 1470 1466 1460 1452 1440 1436 1433 1429 1425 1421 1416 1411 1406 1402 1398 1396 1394 1393 1393 1393 1393 1393 1394 1395 1397 1400 1403 1407 1411 1416 1422 1427 1433 1439 1446 1452 1459
1476 1472 1471 1470 1458 1460 1461 1456 1455 1453 1444 1436 1433 1430 1427 1424 1420 1416 1411 1406 1401 1398 1396 1394 1393 1393 1393 1393 1393 1394 1396 1397 1400 1403 1407 1412 1418 1423 1430 1436 1443 1449 1455 1459
1474 1473 1473 1456 1446 1448 1450 1447 1445 1442 1437 1434 1432 1428 1426 1423 1420 1415 1411 1406 1402 1399 1396 1395 1395 1395 1395 1395 1396 1397 1398 1400 1403 1407 1411 1416 1422 1428 1435 1440 1446 1451 1455 1458
1472 1470 1465 1451 1445 1445 1448 1445 1438 1438 1434 1431 1429 1427 1425 1423 1419 1416 1412 1409 1405 1402 1400 1399 1398 1398 1398 1398 1399 1401 1403 1406 1409 1413 1417 1423 1428 1434 1439 1444 1448 1452 1455 1458
1470 1467 1461 1449 1442 1441 1446 1444 1435 1434 1432 1430 1428 1428 1426 1422 1419 1416 1413 1411 1408 1406 1404 1403 1402 1402 1402 1403 1405 1407 1409 1412 1417 1420 1424 1428 1432 1437 1442 1446 1450 1453 1456 1458
1465 1464 1456 1444 1440 1443 1448 1441 1432 1430 1429 1428 1427 1427 1425 1422 1420 1417 1415 1413 1411 1410 1408 1407 1407 1408 1408 1409 1410 1413 1415 1418 1421 1425 1428 1432 1437 1441 1445 1448 1452 1454 1456 1458
1461 1461 1456 1438 1440 1442 1438 1432 1429 1427 1426 1425 1424 1424 1423 1422 1421 1419 1418 1417 1415 1414 1413 1413 1413 1413 1413 1414 1417 1419 1421 1424 1427 1431 1434 1438 1442 1445 1448 1451 1453 1455 1456 1456
1452 1448 1438 1436 1436 1434 1432 1430 1427 1425 1424 1423 1422 1423 1423 1423 1422 1422 1421 1421 1420 1419 1419 1419 1419 1420 1420 1422 1424 1426 1428 1431 1434 1437 1440 1443 1446 1448 1451 1452 1454 1454 1455 1455
1444 1439 1435 1433 1431 1431 1429 1427 1424 1423 1422 1421 1421 1421 1422 1423 1423 1424 1424 1424 1424 1424 1424 1424 1426 1427 1428 1429 1431 1433 1434 1437 1439 1442 1444 1447 1449 1451 1452 1453 1453 1453 1453 1452
1440 1436 1432 1429 1429 1428 1426 1424 1422 1421 1420 1420 1420 1421 1421 1422 1424 1425 1426 1427 1428 1428 1428 1429 1431 1432 1433 1435 1437 1438 1440 1442 1444 1446 1448 1449 1450 1452 1452 1452 1452 1452 1451 1450
1437 1432 1431 1428 1427 1425 1424 1422 1420 1419 1418 1418 1419 1420 1421 1422 1424 1425 1427 1428 1430 1431 1432 1433 1435 1436 1438 1440 1442 1443 1444 1446 1447 1449 1450 1451 1452 1452 1451 1451 1450 1449 1448 1446
1431 1428 1427 1425 1424 1423 1421 1420 1418 1418 1417 1417 1418 1419 1420 1422 1424 1426 1428 1430 1432 1434 1435 1437 1439 1440 1442 1444 1446 1448 1448 1449 1450 1451 1451 1452 1452 1451 1450 1449 1448 1447 1445 1443
1427 1425 1423 1422 1421 1420 1419 1418 1417 1416 1416 1417 1417 1419 1420 1422 1424 1426 1428 1431 1433 1436 1438 1440 1442 1443 1445 1447 1449 1450 1450 1451 1451 1452 1452 1451 1451 1450 1449 1447 1446 1444 1442 1440
1423 1422 1420 1419 1418 1417 1416 1415 1415 1415 1415 1416 1417 1418 1420 1422 1424 1426 1429 1432 1435 1437 1440 1442 1444 1445 1447 1449 1450 1451 1451 1452 1452 1451 1451 1450 1449 1448 1446 1445 1443 1441 1439 1437
1420 1418 1417 1416 1415 1414 1414 1413 1413 1413 1414 1415 1416 1418 1420 1423 1425 1427 1430 1433 1436 1438 1441 1443 1445 1447 1448 1450 1451 1451 1451 1451 1451 1451 1450 1449 1447 1446 1444 1442 1440 1438 1436 1434
1417 1415 1414 1413 1412 1411 1411 1411 1411 1412 1413 1414 1416 1418 1420 1423 1425 1428 1431 1435 1438 1441 1443 1445 1446 1447 1449 1450 1451 1451 1451 1451 1450 1449 1448 1447 1445 1443 1441 1439 1437 1435 1433 1430
1414 1412 1410 1409 1408 1408 1408 1408 1409 1410 1411 1413 1415 1417 1420 1422 1424 1428 1431 1435 1438 1441 1443 1445 1447 1448 1449 1450 1450 1450 1450 1449 1449 1447 1446 1444 1442 1440 1438 1436 1434 1432 1429 1427
1409 1406 1404 1404 1404 1404 1404 1404 1405 1407 1409 1411 1414 1416 1419 1423 1426 1429 1431 1434 1437 1439 1442 1444 1446 1447 1448 1449 1449 1449 1449 1448 1447 1445 1443 1441 1439 1437 1435 1433 1431 1428 1426 1424
1405 1403 1401 1400 1400 1400 1400 1401 1402 1404 1406 1409 1412 1416 1419 1422 1426 1429 1432 1434 1437 1440 1442 1444 1445 1447 1447 1448 1448 1448 1447 1446 1444 1442 1441 1439 1436 1434 1432 1430 1428 1425 1423 1421
1404 1401 1399 1398 1397 1397 1398 1399 1400 1402 1405 1408 1411 1414 1418 1421 1425 1428 1431 1433 1437 1439 1441 1443 1444 1445 1446 1446 1446 1446 1445 1443 1442 1440 1438 1436 1433 1431 1429 1427 1424 1422 1420 1418
1403 1401 1399 1398 1397 1397 1397 1398 1399 1401 1404 1406 1409 1413 1417 1420 1424 1427 1430 1433 1436 1438 1440 1442 1443 1444 1444 1445 1444 1444 1442 1441 1439 1437 1435 1433 1430 1428 1426 1424 1422 1419 1417 1415
1403 1401 1399 1398 1397 1397 1397 1398 1399 1400 1402 1405 1408 1411 1415 1418 1422 1424 1427 1431 1434 1436 1438 1440 1441 1442 1443 1443 1442 1441 1440 1438 1436 1434 1432 1430 1428 1425 1423 1421 1419 1417 1415 1412
1404 1401 1399 1398 1397 1397 1396 1397 1398 1399 1401 1404 1407 1410 1414 1417 1420 1424 1427 1430 1432 1435 1437 1438 1439 1440 1440 1440 1439 1438 1437 1435 1433 1431 1429 1427 1425 1423 1421 1418 1416 1414 1412 1410
1403 1401 1399 1398 1396 1396 1396 1396 1396 1397 1399 1401 1404 1408 1412 1415 1419 1422 1425 1428 1430 1433 1434 1436 1437 1438 1438 1438 1437 1436 1434 1433 1431 1429 1427 1425 1423 1421 1418 1416 1414 1412 1410 1408
1402 1400 1398 1397 1395 1395 1394 1394 1395 1395 1397 1399 1402 1405 1408 1412 1416 1420 1423 1425 1428 1430 1432 1433 1434 1435 1435 1435 1434 1433 1431 1430 1428 1426 1424 1422 1420 1418 1416 1414 1412 1410 1408 1405
1400 1398 1396 1394 1394 1393 1392 1392 1393 1393 1395 1397 1399 1402 1405 1409 1413 1416 1420 1422 1425 1427 1429 1431 1432 1432 1432 1432 1431 1430 1429 1427 1426 1424 1422 1420 1418 1416 1414 1412 1410 1408 1405 1403